User: anonymous   Login
Location: Selby
(38.0566°N, 122.2439°W)
Time: 18:19:40
(UTC+00:00)
Language:

CSL-04 Deb - Orbit

View from above orbital plane
View from above orbital plane
View from above satellite
View from above satellite

Ground track
Ground track

The orbit data is extracted from the following two-line orbital elements,

1 26339U 99057HY  24280.86435771  .00101857  00000-0  81678-2 0  9994
2 26339  98.1410 328.1696 0034689 207.4108 152.5284 14.99135539303120
Epoch (UTC): 06 October 2024 20:44:40
Eccentricity: 0.0034689
inclination: 98.1410°
perigee height: 545 km
apogee height: 593 km
right ascension of ascending node: 328.1696°
argument of perigee: 207.4108°
revolutions per day: 14.99135539
mean anomaly at epoch: 152.5284°
orbit number at epoch: 30312

The dashed part of the orbit path shows where the satellite is in the earth's shadow,  

DLR